STARLINK-1754 (46590 NORAD) Tracking and Keplerian Element Data

This shows tracking and keplerian element data for the satellite.

Feedback or suggestion? Click here.




ElementValue
Catalog46590
NameSTARLINK-1754
Epoch Orbit963
Epoch Day336.91667824
Epoch Year2020
RAAN165.1699
Inclination53.0014
Eccentricity0.0008557
Argument of Perigee312.3158
Mean Anonmoly111.1749
Mean Motion15.62736214
Decay Rate0.00051652
L11 46590U 20070BL 20336.91667824 .00051652 00000-0 56583-3 0 9999
L22 46590 53.0014 165.1699 0008557 312.3158 111.1749 15.62736214 9633

Live tracking and technical data element details for STARLINK-1754 (NORAD 46590). STARLINK-1754 can be tracked NOW for your location showing map with azimuth and elevation plus other details from your city location.

Track the satellite on the map from your city or location and see movement details for azimuth, elevation, latitude, longitude, range, height, and movement on the map or in text.







IsCatalogInMostPopularTable: catalog: 46590, numindb: 12
Update: records affected: 1



GetName: 46590 STARLINK-1754

Hit Count: updated at: Thu, 03 Dec 2020 06:47:20 GMT